Flag for Saudi Arabia Weather past 2 weeks in Jeddah, Saudi Arabia

Now
91 °F

Sunny.


Feels Like: 91 °F
Forecast: 81 / 96 °F
Wind: 12 mph from Southwest

Location: Jeddah King Abdul Aziz International Airport


UV Index: 10 (Very high)

Visibility: 10 mi


Pressure: 29.71 "Hg

Humidity: 36%

Dew point: 61 °F

Location of JeddahLocation

Historic Weather in Jeddah

°F

Jeddah temperature yesterday

Maximum temperature yesterday: 93 °F (at 11:00 AM)
Minimum temperature yesterday: 81 °F (at 6:00 AM)
Average temperature yesterday: 86 °F

Past Weeks' High & Low Weather Summary

 TemperatureHumidityPressure
High102 °F (Apr 17, 12:00 PM)89% (Apr 14, 7:00 AM)29.89 "Hg (Apr 14, 7:00 AM)
Low75 °F (Apr 6, 4:00 AM)17% (Apr 12, 2:00 PM)29.71 "Hg (Apr 17, 3:00 AM)
Average86 °F49%29.80 "Hg
* Reported Apr 5 5:00 PM — Apr 20 5:00 PM, Jeddah, Weather by CustomWeather, © 2014

Note: Actual official high and low records may vary slightly from our data, if they occured in-between our weather recording intervals... More about our weather records

Advertising

Historic Weather Conditions — Data for Previous 24 hours

 ConditionsComfort  
Time TempWeatherWind HumidityBarometerVisibility
5:00 PM
Apr 20
91 °FSunny.12 mph36%29.71 "Hg10 mi
4:00 PM93 °FSunny.14 mph36%29.71 "Hg10 mi
3:00 PM93 °FSunny.14 mph34%29.74 "Hg10 mi
2:00 PM95 °FSunny.14 mph32%29.74 "Hg10 mi
1:00 PM95 °FSunny.17 mph26%29.74 "Hg5 mi
12:00 PM95 °FSunny.15 mph30%29.77 "Hg5 mi
11:00 AM97 °FSunny.15 mph25%29.80 "Hg5 mi
10:00 AM97 °FSunny.8 mph22%29.80 "Hg5 mi
9:00 AM91 °FSunny.6 mph34%29.80 "Hg5 mi
8:00 AM86 °FSunny.No wind49%29.77 "Hg5 mi
7:00 AM81 °FSunny.No wind54%29.74 "Hg10 mi
6:00 AM81 °FSunny.No wind58%29.74 "Hg10 mi
5:00 AM82 °FClear.No wind55%29.71 "Hg10 mi
4:00 AM82 °FClear.No wind55%29.71 "Hg10 mi
3:00 AM82 °FClear.No wind48%29.74 "Hg10 mi
2:00 AM84 °FClear.No wind48%29.74 "Hg10 mi
1:00 AM84 °FClear.No wind48%29.77 "Hg10 mi
12:00 AM84 °FClear.No wind55%29.77 "Hg10 mi
11:00 PM
Apr 19
86 °FClear.6 mph55%29.80 "Hg10 mi
10:00 PM84 °FClear.No wind62%29.80 "Hg10 mi
9:00 PM84 °FClear.5 mph58%29.80 "Hg10 mi
8:00 PM86 °FPassing clouds.No wind59%29.80 "HgN/A
7:00 PM86 °FPassing clouds.6 mph59%29.80 "HgN/A
6:00 PM86 °FScattered clouds.6 mph59%29.77 "HgN/A
5:00 PM88 °FScattered clouds.8 mph55%29.77 "HgN/A
Weather by CustomWeather, © 2014

See weather overview